ATLAS 5 CENTAUR DEB, 43965

Orbit data source: Space-Track

ATLAS 5 CENTAUR DEB, 43965 is space debris in HEO originally from a launch on Wed, 17 Sep 2014 UTC launched from the Air Force Eastern Test Range (AFETR). Debris objects in space refer to the collection of defunct objects orbiting the Earth. Examples of debris include non-operational satellites, rocket bodies, and fragments generated from explosions, collisions, or faulty payload assembly.

Loading next visibility...
Identifier
43965, 2014-055U
Orbit
HEO
Country
Flag of USUS
Related business
Flag of USUnited Launch Alliance/Lockheed Martin (US)
Manufacturer
Unknown
Mission
Spacecraft
Bus & Motor
Unknown
Mass
Unknown
Launch date (UTC)
2014-09-17 (12 years ago)
Launch vehicle
Unknown
Launch site
Air Force Eastern Test Range (AFETR)
Object type
Payload
Rocket body
Debris
Shape & HBR
Unknown shape, 1.1 m
Radar Cross Section
Medium (>0.1 m² and <1 m²)

Expand to show TLE details & history
Last TLE update: 1 week ago

TLE from 1 week ago
0 ATLAS 5 CENTAUR DEB
1 43965U 14055U   26230.76035107 -.00000167  00000-0  00000-0 0  9999
2 43965  20.7368 118.4183 4846197 214.4528 101.6285  1.89968906 55229
Epoch: 2026-08-18T18:14Z
TLE epoch observation values (Epoch: 2026-08-18T18:14:54.332Z)
Latitude
0.00003°
Longitude
-122.37794°
Altitude
28,739.744 km
Speed
2.868 km/s
True Right ascension
07h 53m 53s
True Declination
0° 00' 00"
Sunlit
Object was in daylight at epoch
Visualization orbit readout
Latitude
Unknown
Longitude
Unknown
Altitude
Unknown
Speed
Unknown
Apparent Right ascension
Unknown
Apparent Declination
Unknown
Sunlit
N/A
Visualization observer readout
Local Sidereal Time
01:50:27
Azimuth
Unknown
Elevation
Unknown
Doppler factor
Unknown
Orbital elements
Apogee altitude
34,509.584 km
Perigee altitude
7,815.886 km
Semi-major axis
27,540.872 km
Eccentricity
0.48462
Inclination
20.7368°
RAAN
118.4183°
Arg. of periapsis
214.4528°
True anomaly
145.56065°
Mean anomaly
101.6285°
Eccentric anomaly
124.50921°
Mean motion
0.47487 °/min
Orbital period
758.1 mins
BSTAR
0
Loading maneuver chart data...
Computing Atmospheric mass density...

Documentation

Showing up to 5 results
|